Regional Weather Roundup
Issued by NWS

Home | Current Version | Previous Version | Text Only | Print | Product List | Glossary Off
Versions: 1 2 3 4 5 6 7 8 9 10 11 12 13 14 15 16 17 18 19 20 21 22 23 24 25 26 27 28 29 30 31 32 33 34 35 36 37 38 39 40 41 42 43 44 45 46 47 48 49 50

000
ASUS43 KDMX 312007
RWRIA

WEATHER ROUNDUP FOR IOWA
NATIONAL WEATHER SERVICE DES MOINES IA
300 PM CDT MON AUG 31 2015

NOTE: "FAIR" INDICATES FEW OR NO CLOUDS BELOW 12,000 FEET WITH NO
SIGNIFICANT WEATHER AND/OR OBSTRUCTIONS TO VISIBILITY.

* - THESE STATIONS ARE NOT NWS STATIONS...THUS NOT UNDER NWS
QUALITY CONTROL.  THEY ALSO DO NOT REPORT WEATHER SUCH
AS PRECIPITATION OR FOG.

IAZ001>003-012>014-020>022-031>034-043>046-312100-
   NORTHWEST IOWA

CITY           SKY/WX    TMP DP  RH WIND       PRES   REMARKS
CARROLL *      MOSUNNY   82  73  74 MISG      29.94F HX  88
CHEROKEE *     PTSUNNY   81  70  69 S13G20    29.94S HX  84
DENISON *      MOSUNNY   81  70  69 S8G17     29.93F HX  84
LE MARS *      MOSUNNY   82  70  65 S16       29.90F HX  86
ORANGE CITY *  SUNNY     82  70  65 S16G22    29.91F HX  86
SHELDON *      SUNNY     81  68  65 S20       29.90F HX  83
SIOUX CITY     MOSUNNY   84  69  60 S15       29.91F HX  88
SPENCER        MOSUNNY   83  68  60 S16G23    29.93F HX  86
STORM LAKE *   MOSUNNY   81  70  69 SW15G22   29.95F HX  84
$$

IAZ055>058-069>071-079>083-090>094-312100-
   SOUTHWEST IOWA

CITY           SKY/WX    TMP DP  RH WIND       PRES   REMARKS
ATLANTIC *     MOSUNNY   82  72  69 S9G16     29.95F HX  87
AUDUBON *      SUNNY     82  72  69 S8G17     29.97F HX  87
CLARINDA *     MOSUNNY   86  70  58 SW9G16    29.97F HX  90
COUNCIL BLFS * MOSUNNY   82  68  61 S13       29.94F HX  85
CRESTON *      PTSUNNY   82  73  74 SW8       29.99S HX  88
LAMONI         PTSUNNY   85  71  63 S9        29.97F HX  90
RED OAK *      MOSUNNY   84  68  58 S10       29.96F HX  87
SHENANDOAH *   MOSUNNY   86  70  58 S12       29.95F HX  90
$$

IAZ047>049-059>061-072>074-084-312100-
   CENTRAL IOWA

CITY           SKY/WX    TMP DP  RH WIND       PRES   REMARKS
AMES           MOSUNNY   86  73  65 S12       29.95F HX  93
ANKENY *       PTSUNNY   86  73  66 S7        29.95F HX  93
CHARITON *     MOSUNNY   88  72  58 S10G16    29.97F HX  94
DES MOINES     MOSUNNY   88  71  57 S13       29.95F HX  94
GRINNELL*      PTSUNNY   84  72  65 S9        29.99S HX  89
KNOXVILLE *    MOSUNNY   84  73  70 S9        29.96F HX  91
MARSHALLTOWN   MOSUNNY   84  72  67 S13       29.97S HX  89
PELLA *        MOSUNNY   90  75  62 S10       29.98S HX 100
PERRY *          N/A     86  72  62 S13       29.95F HX  92
$$

IAZ004>006-015-016-023>025-035-036-312100-
   NORTH CENTRAL IOWA

CITY           SKY/WX    TMP DP  RH WIND       PRES   REMARKS
ALGONA *       PTSUNNY   82  72  69 S13G18    29.95S HX  87
CLARION *      MOSUNNY   82  73  74 S13G20    29.96S HX  88
ESTHERVILLE    PTSUNNY   79  68  69 S14       29.94S HX  81
FORT DODGE *   CLOUDY    81  72  74 S10       29.96S HX  84
MASON CITY     PTSUNNY   84  73  69 S15G22    29.97F HX  90
FOREST CITY *  PTSUNNY   81  70  69 S13       29.96S HX  84
IOWA FALLS *   PTSUNNY   84  73  70 S12       29.97F HX  91
$$

IAZ007>011-017>019-026>030-037>042-050>054-066-312100-
   NORTHEAST IOWA

CITY           SKY/WX    TMP DP  RH WIND       PRES   REMARKS
CEDAR RAPIDS   MOSUNNY   84  75  74 SE6       29.99F HX  92
CHARLES CITY * PTSUNNY   82  75  78 S12G18    29.98F HX  89
CLINTON *      MOSUNNY   84  72  65 S7        30.04F HX  89
DECORAH *      MOSUNNY   82  70  65 S9G15     29.99F HX  86
DUBUQUE        MOSUNNY   82  69  64 S9        30.03F HX  85
MONTICELLO *   MOSUNNY   84  73  70 SE9       30.00F HX  91
OELWEIN *      PTSUNNY   82  73  74 S10       30.00F HX  88
WATERLOO       MOSUNNY   84  72  67 S12       29.97F HX  89
$$

IAZ064-065-067-068-078-312100-
   EAST CENTRAL IOWA

CITY           SKY/WX    TMP DP  RH WIND       PRES   REMARKS
DAVENPORT      PTSUNNY   86  71  60 S7        30.01F HX  91
IOWA CITY      PTSUNNY   86  73  65 SE12      29.99F HX  93
MT. PLEASANT * MOSUNNY   90  66  45 S9        30.00S HX  93
MUSCATINE *    PTSUNNY   90  72  55 S8G15     29.99F HX  96
QUAD CITIES    MOSUNNY   86  71  60 S9        30.00F HX  91
$$

IAZ062-063-075>077-085>089-095>099-312100-
   SOUTHEAST IOWA

CITY           SKY/WX    TMP DP  RH WIND       PRES   REMARKS
BURLINGTON     MOSUNNY   88  72  58 S10       30.00F HX  94
FAIRFIELD *    MOSUNNY   88  70  55 SE9G16    29.99S HX  92
FORT MADISON * MOSUNNY   88  73  62 S6        30.00F HX  96
KEOKUK *       MOSUNNY   90  72  55 S8G15     29.98F HX  96
OSKALOOSA *      N/A     88  70  55 S10       29.98F HX  92
CENTERVILLE *  SUNNY     86  73  66 SE12      29.99F HX  93
OTTUMWA        MOSUNNY   86  73  65 S10       29.96F HX  93
WASHINGTON *     N/A    N/A N/A N/A MISG        N/A
$$

ABBREVIATIONS USED IN REMARKS
   TC - TEMPERATURES IN CELSIUS
  WCI - WIND CHILL INDEX
   HX - HEAT INDEX
  VSB - VISIBILITY
$$



USA.gov is the U.S. government's official web portal to all federal, state and local government web resources and services.